Nassau, Bahamas

11:32 PM EST on February 23, 2018 (GMT -0500)
Nassau International

Weather History for MYNN - October, 2011

Change the Weather History Date:

Wednesday, October 19, 2011

  Actual Average Record
Temperature  
Mean Temperature 85 °F -  
Max Temperature 90 °F 83 °F 91 °F (2005)
Min Temperature 80 °F 69 °F 69 °F (2008)
Cooling Degree Days 20    
Growing Degree Days 35 (Base 50)    
Moisture  
Dew Point 75 °F    
Average Humidity 70    
Maximum Humidity 89    
Minimum Humidity 55    
Precipitation  
Precipitation 0.00 in 0.13 in - ()
Sea Level Pressure  
Sea Level Pressure 29.80 in    
Wind  
Wind Speed 10 mph ()    
Max Wind Speed 16 mph    
Max Gust Speed 29 mph    
Visibility 6.7 miles    
Events Rain , Hail , Thunderstorm    
Averages and records for this station are not official NWS values.
T = Trace of Precipitation, MM = Missing Value Source: Averaged Metar Reports

Daily Weather History Graph

Daily Weather History Graph

Search for Another Location

Airport or City:

Trip Planner

Search our weather history database for the weather conditions in past years. The results will help you decide how hot, cold, wet, or windy it might be!

Date:

Astronomy

Oct. 19, 2011 Rise Set
Actual Time 7:09 AM EDT 6:39 PM EDT
Civil Twilight 6:46 AM EDT 7:02 PM EDT
Nautical Twilight 6:20 AM EDT 7:29 PM EDT
Astronomical Twilight 5:53 AM EDT 7:55 PM EDT
Moon No Moon Rise 1:23 PM EDT (10/19)
Length of Visible Light 12h 15m
Length of Day
11h 29m
Waning Gibbous, 55% of the Moon is Illuminated
Oct 19
Waning Gibbous
Oct 19
Last Quarter
Oct 26
New
Nov 2
First Quarter
Nov 10
Full

Hourly Weather History & Observations

Time (EDT) Temp. Heat Index Dew Point Humidity Pressure Visibility Wind Dir Wind Speed Gust Speed Precip Events Conditions
12:00 AM 86.0 °F 99.3 °F 78.8 °F 79% 29.79 in 6.2 mi SSE 11.5 mph - N/A   Mostly Cloudy
1:00 AM 86.0 °F 99.3 °F 78.8 °F 79% 29.78 in 6.2 mi South 12.7 mph - N/A   Mostly Cloudy
2:00 AM 83 °F - 77 °F 77%  in 8 mi South 10.4 mph - -   Mostly Cloudy
2:00 AM 84.2 °F 94.1 °F 77.0 °F 79% 29.77 in 6.2 mi South 4.6 mph - N/A   Mostly Cloudy
3:00 AM 87.8 °F 97.6 °F 75.2 °F 66% 29.79 in 6.2 mi South 13.8 mph - N/A   Mostly Cloudy
4:00 AM 86.0 °F 93.4 °F 73.4 °F 66% 29.77 in 6.2 mi South 10.4 mph - N/A   Mostly Cloudy
5:00 AM 83 °F - 75 °F 70% 29.78 in 8 mi South 9.2 mph - -   Partly Cloudy
5:00 AM 82.4 °F 89.5 °F 75.2 °F 79% 29.78 in 6.2 mi South 9.2 mph - N/A   Mostly Cloudy
6:00 AM 86.0 °F 93.4 °F 73.4 °F 66% 29.77 in 6.2 mi South 12.7 mph - N/A   Mostly Cloudy
8:00 AM 83 °F - 76 °F 73% 29.79 in 8 mi South 12.7 mph - -   Scattered Clouds
8:00 AM 84.2 °F 92.3 °F 75.2 °F 74% 29.78 in 6.2 mi South 12.7 mph - N/A   Mostly Cloudy
9:00 AM 87.8 °F 95.6 °F 73.4 °F 62% 29.80 in 6.2 mi South 15.0 mph - N/A   Mostly Cloudy
10:00 AM 89.6 °F 98.2 °F 73.4 °F 59% 29.79 in 6.2 mi South 13.8 mph - N/A   Mostly Cloudy
11:00 AM 88 °F - 77 °F 63% 29.80 in 9 mi South 16.1 mph - -   Scattered Clouds
11:00 AM 87.8 °F 99.7 °F 77.0 °F 70% 29.80 in 6.2 mi South 16.1 mph 28.8 mph N/A   Mostly Cloudy
1:00 PM 91.4 °F 100.1 °F 73.4 °F 55% 29.79 in 6.2 mi SSW 15.0 mph - N/A   Overcast
2:00 PM 88 °F - 77 °F 63% 29.77 in 9 mi SSW 12.7 mph - -   Overcast
2:00 PM 87.8 °F 99.7 °F 77.0 °F 70% 29.77 in 6.2 mi SSW 12.7 mph - N/A   Mostly Cloudy
3:00 PM 91.4 °F 100.1 °F 73.4 °F 55% 29.75 in 6.2 mi SSW 12.7 mph - N/A   Mostly Cloudy
4:00 PM 91.4 °F 100.1 °F 73.4 °F 55% 29.76 in 6.2 mi SSW 8.1 mph - N/A   Mostly Cloudy
5:00 PM - - - %  in 9 mi SSW 16.1 mph - -   Partly Cloudy
5:00 PM 87.8 °F 102.5 °F 78.8 °F 75% 29.79 in 6.2 mi SSW 16.1 mph - N/A   Mostly Cloudy
6:00 PM 89.6 °F 102.2 °F 77.0 °F 66% 29.80 in 6.2 mi SSW 10.4 mph - N/A   Mostly Cloudy
7:00 PM 87.8 °F 97.6 °F 75.2 °F 66% 29.82 in 6.2 mi South 9.2 mph - N/A   Mostly Cloudy
8:00 PM 81 °F - 72 °F 66% 29.83 in 4 mi SSW 8.1 mph - - Hail , Thunderstorm Thunderstorms with Hail
8:00 PM 80.6 °F 84.6 °F 71.6 °F 74% 29.83 in 6.2 mi SSW 8.1 mph - N/A Rain , Thunderstorm Thunderstorms and Rain
9:00 PM 82.4 °F 92.4 °F 78.8 °F 89% 29.84 in 6.2 mi SSW 13.8 mph - N/A   Mostly Cloudy
10:00 PM 82.4 °F 89.5 °F 75.2 °F 79% 29.82 in 6.2 mi South 3.5 mph - N/A   Mostly Cloudy
11:00 PM 80 °F - 74 °F 76% 29.87 in 9 mi WSW 4.6 mph - -   Partly Cloudy
11:00 PM 80.6 °F 85.4 °F 73.4 °F 79% 29.86 in 6.2 mi WSW 4.6 mph - N/A   Mostly Cloudy